Location: Penzberg
(47.7615°N, 11.3159°E)
Time: 22:07:28
(UTC+02:00)

ISS - Visible Passes

Search period start: 25 September 2020 00:00
Search period end: 05 October 2020 00:00
Orbit: 419 x 420 km, 51.6° (Epoch: 26 September)

Date Brightness Start Highest point End Pass type
(mag) Time Alt. Az. Time Alt. Az. Time Alt. Az.
25 Sep -2.9 20:58:29 10° WNW 21:01:43 41° N 21:02:08 38° NNE visible
26 Sep -2.8 20:10:59 10° WNW 20:14:14 41° N 20:16:31 17° ENE visible
26 Sep -1.2 21:48:03 10° WNW 21:49:28 22° WNW 21:49:28 22° WNW visible
27 Sep -3.1 21:00:38 10° WNW 21:03:50 47° N 21:03:50 47° N visible
28 Sep -2.9 20:13:11 10° WNW 20:16:26 42° N 20:18:11 22° ENE visible
28 Sep -1.0 21:50:04 10° WNW 21:51:09 19° WNW 21:51:09 19° WNW visible
29 Sep -2.8 19:25:41 10° WNW 19:28:56 41° N 19:32:09 10° ENE visible
29 Sep -3.3 21:02:39 10° WNW 21:05:30 59° NW 21:05:30 59° NW visible
30 Sep -3.5 20:15:13 10° WNW 20:18:34 58° NNE 20:19:53 32° E visible
30 Sep -0.7 21:52:09 10° WNW 21:52:51 15° W 21:52:51 15° W visible
01 Oct -3.2 19:27:45 10° WNW 19:31:03 48° N 19:34:17 10° E visible
01 Oct -2.7 21:04:36 10° WNW 21:07:15 44° WSW 21:07:15 44° WSW visible
02 Oct -3.8 20:17:08 10° WNW 20:20:31 80° SSW 20:21:42 37° SE visible
03 Oct -3.7 19:29:40 10° WNW 19:33:03 75° NNE 19:36:12 11° ESE visible
03 Oct -1.7 21:06:49 10° W 21:09:10 23° SW 21:09:10 23° SW visible
04 Oct -2.5 20:19:08 10° WNW 20:22:16 36° SW 20:23:45 23° SSE visible
